SCP
-0 -0 0 0 0 0 -0 -0 -0 -0 0 0 0 0 0 -0 -0 -0 -0 -0 -0 -0 0 0 0 -0 -0 -0 -0 -0 -0 -0 -0 -0 -0 -0 -0 -0 -0 -0 -0 -0 -0 0 0 -0 -0 -0 -0
0 0 0 0 0 0 -0 -0 0 -0 0 0 0 0 0 0 -0 0 0 -0 -0 -0 -0 0 0 -0 -0 -0 -0 -0 -0 -0 -0 -0 -0 -0 -0 -0 -0 0 -0 -0 0 0 0 -0 -0 -0 0
-0 0 0 0 0 0 0 -0 0 -0 -0 -0 0 0 0 0 0 -0 0 -0 -0 -0 -0 -0 -0 -0 -0 -0 -0 -0 -0 -0 -0 -0 -0 -0 -0 -0 -0 0 -0 0 0 0 -0 -0 -0 -0 0
0 0 0 0 0 0 0 0 0 0 -0 -0 -0 0 0 0 -0 -0 -0 -0 -0 -0 -0 -0 -0 -0 -0 -0 -0 -0 0 -0 -0 -0 -0 -0 -0 -0 -0 -0 -0 -0 0 0 -0 -0 -0 -0 0
0 0 0 0 0 0 0 0 0 0 -0 -0 -0 -0 0 0 0 -0 -0 -0 -0 -0 -0 -0 -0 -0 -0 -0 -0 -0 -0 -0 -0 -0 -0 -0 -0 -0 -0 -0 -0 0 0 -0 -0 -0 -0 0 0
0 0 0 0 0 0 0 0 0 0 0 -0 -0 -0 -0 0 0 0 -0 -0 -0 -0 -0 0 0 -0 -0 -0 -0 -0 -0 -0 -0 -0 -0 -0 -0 -0 0 -0 0 0 -0 -0 -0 -0 -0 -0 0
0 0 0 0 0 0 0 0 0 0 0 -0 0 -0 0 0 0 0 -0 -0 -0 -0 -0 0 0 0 -0 -0 -0 -0 -0 -0 -0 -0 -0 -0 -0 0 0 0 0 -0 -0 -0 -0 -0 -0 -0 -0
0 0 0 0 0 0 0 0 0 0 0 0 0 0 0 0 0 0 0 0 -0 -0 0 0 0 0 0 0 -0 -0 -0 -0 -0 -0 -0 -0 -0 0 -0 -0 -0 -0 -0 -0 -0 -0 -0 0 0
0 0 0 0 0 0 0 0 0 0 0 0 0 0 0 0 0 0 0 0 0 -0 -0 0 0 0 0 0 0 0 0 0 0 0 0 0 0 0 0 0 -0 -0 -0 -0 -0 -0 0 0 0
0 0 0 0 0 0 0 0 0 0 0 0 0 0 0 0 0 0 0 0 0 0 0 -0 0 0 0 0 0 0 0 0 0 0 0 0 0 0 0 0 -0 -0 -0 -0 -0 -0 -0 0 0
0 0 0 0 0 0 0 0 0 0 0 0 0 0 0 0 0 0 0 0 0 0 0 0 0 0 0 0 0 0 0 0 0 0 0 0 0 0 0 0 0 0 0 0 0 0 0 0 0
0 0 0 0 0 0 0 0 0 0 0 0 0 0 0 0 0 0 0 0 0 0 0 0 0 0 0 0 0 0 0 0 0 0 0 0 0 0 0 0 0 0 0 0 0 0 0 0 0
0 0 0 0 0 0 0 0 0 0 0 0 0 0 0 0 0 0 0 0 0 0 0 0 0 0 0 0 0 0 0 0 0 0 0 0 0 0 0 0 0 0 0 0 0 0 0 0 0
0 0 0 0 0 0 0 0 0 0 0 0 0 0 0 0 0 0 0 0 0 0 0 0 0 0 0 0 0 0 0 0 0 0 0 0 0 0 0 0 0 0 0 0 0 0 0 0 0
0 0 0 0 0 0 0 0 0 0 0 0 0 0 0 0 0 0 0 0 0 0 0 0 0 0 0 0 0 0 0 0 0 0 0 0 0 0 0 0 0 0 0 0 0 0 0 0 0
0 0 0 0 0 0 0 0 0 0 0 0 0 0 0 0 0 0 0 0 0 0 0 0 0 0 0 0 0 0 0 0 0 0 0 0 0 0 0 0 0 0 0 0 0 0 0 0 0
0 0 0 0 0 0 0 0 0 0 0 0 0 0 0 0 0 0 0 0 0 0 0 0 0 0 0 0 0 0 0 0 0 0 0 0 0 0 0 0 0 0 0 0 0 0 0 0 0
0 0 0 0 0 0 0 0 0 0 0 0 0 0 0 0 0 0 0 0 0 0 0 0 0 0 0 0 0 0 0 0 0 0 0 0 0 0 0 0 0 0 0 0 0 0 0 0 0
0 0 0 0 0 0 0 0 0 0 0 0 0 0 0 0 0 0 0 0 0 0 0 0 0 0 0 0 0 0 0 0 0 0 0 0 0 0 0 0 0 0 0 0 0 0 0 0 0
0 0 0 0 0 0 0 0 0 0 0 0 0 0 0 0 0 0 0 0 0 0 0 0 0 0 0 0 0 0 0 0 0 0 0 0 0 0 0 0 0 0 0 0 0 0 0 0 0
0 0 0 0 0 0 0 0 0 0 0 0 0 0 0 0 0 0 0 0 0 0 0 0 0 0 0 0 0 0 0 0 0 0 0 0 0 0 0 0 0 0 0 0 0 0 0 0 0
0 0 0 0 0 0 0 0 0 0 0 0 0 0 0 0 0 0 0 0 0 0 0 0 0 0 0 0 0 0 0 0 0 0 0 0 0 0 0 0 0 0 0 0 0 0 0 0 0
0 0 0 0 0 0 0 0 0 0 0 0 0 0 0 0 0 0 0 0 0 0 0 0 0 0 0 0 0 0 0 0 0 0 0 0 0 0 0 0 0 0 0 0 0 0 0 0 0
0 0 0 0 0 0 0 0 0 0 0 0 0 0 0 0 0 0 0 0 0 0 0 0 0 0 0 0 0 0 0 0 0 0 0 0 0 0 0 0 0 0 0 0 0 0 0 0 0
0 0 0 0 0 0 0 0 0 0 0 0 0 0 0 0 0 0 0 0 0 0 0 0 0 0 0 0 0 0 0 0 0 0 0 0 0 0 0 0 0 0 0 0 0 0 0 0 0
0 0 0 0 0 0 0 0 0 0 0 0 0 -0 0 0 0 0 0 0 0 0 0 0 0 0 0 0 0 0 0 0 0 0 0 0 0 0 0 0 0 0 0 0 0 0 0 0 0
0 0 0 0 0 0 0 0 0 0 0 0 0 0 0 0 0 0 0 0 0 0 0 0 0 0 0 0 0 0 0 0 0 0 0 0 0 0 0 0 0 0 0 0 0 0 0 0 0
0 0 0 0 0 0 0 0 0 0 0 0 0 0 0 0 0 0 0 0 0 0 0 0 0 0 0 0 0 0 0 0 0 0 0 0 0 0 0 0 0 0 0 0 0 0 0 0 0
0 0 0 0 0 0 0 0 0 0 0 0 0 0 0 0 0 0 0 0 0 0 0 0 0 0 0 0 0 0 0 0 0 0 0 0 0 0 0 0 0 0 0 0 0 0 0 0 0
0 0 0 0 0 0 0 0 0 0 0 0 0 0 0 -0 -0 -0 -0 -0 -0 -0 -0 0 0 0 0 0 0 0 0 0 0 0 0 0 0 0 0 0 0 0 0 0 0 0 0 0 0
Wind_Speed_500mb
33 32 32 15 9 11 5 2 5 7 6 13 11 14 18 18 7 8 32 23 26 28 28 28 28 24 19 17 14 10 10 8 10 21 27 31 18 24 16 22 21 25 27 30 30 32 33 32 34
30 28 17 6 8 8 5 5 14 8 16 12 12 18 6 6 14 34 38 27 19 31 31 29 28 23 16 10 7 8 8 7 9 19 26 29 17 24 11 17 20 23 26 28 30 30 32 31 34
22 14 11 5 5 6 7 8 11 7 9 5 7 12 8 7 21 49 38 29 24 30 29 25 24 21 15 9 8 7 9 7 9 18 27 26 13 27 11 13 17 22 24 26 27 28 30 30 32
31 12 4 6 7 4 12 14 28 10 7 9 10 15 15 10 28 24 36 36 26 26 26 25 25 21 17 14 10 4 6 5 7 21 25 23 13 26 14 17 18 19 22 22 24 26 27 29 30
21 6 6 5 5 8 9 31 24 12 11 2 5 10 17 18 17 20 42 36 27 24 22 24 23 21 19 18 13 4 2 2 7 15 26 24 20 20 17 16 17 16 18 19 22 22 24 26 26
15 8 6 1 8 7 8 19 19 18 19 9 3 12 12 21 20 33 40 41 33 28 22 24 25 24 22 19 15 7 1 3 10 15 22 26 23 16 20 15 19 18 17 17 20 20 21 22 22
6 6 6 7 3 6 1 13 9 18 18 10 9 6 18 25 21 40 41 36 33 31 23 25 25 25 24 23 17 11 7 6 14 18 15 15 22 18 16 14 16 19 18 16 16 17 18 18 17
5 9 8 7 2 2 9 6 10 12 7 20 11 7 12 27 24 37 43 37 32 32 25 24 25 25 26 26 23 18 14 12 10 20 19 16 15 15 13 16 17 17 16 15 15 14 14 13 13
3 7 2 8 8 3 6 7 6 7 13 10 11 12 11 26 28 38 47 40 37 34 28 25 23 27 28 28 27 24 20 19 21 21 22 15 13 12 12 12 15 15 16 15 13 12 11 10 9
7 7 16 14 15 10 10 7 15 4 1 8 17 16 20 28 31 42 54 55 51 44 35 31 26 22 28 30 30 28 25 25 23 20 23 19 18 16 14 12 12 14 15 14 12 11 9 8 8
11 9 8 18 10 20 18 6 2 5 7 16 22 32 32 36 35 41 50 58 57 49 39 37 31 26 28 28 26 34 31 30 29 22 22 19 24 21 17 16 15 16 17 16 15 12 11 11 10
10 16 19 13 26 8 2 18 17 13 16 24 27 16 39 39 39 43 47 60 60 54 47 43 41 36 33 30 29 27 35 35 35 30 26 27 24 22 22 20 19 19 20 19 16 16 16 13 14
11 13 30 30 20 9 10 14 8 36 27 24 22 22 32 43 40 37 38 45 59 58 52 49 47 43 42 42 38 34 36 34 36 37 32 32 32 27 25 26 25 23 24 23 21 21 20 19 16
8 38 37 31 36 20 9 23 13 15 30 30 38 44 38 43 49 43 46 52 63 62 61 56 52 49 48 46 43 40 39 35 37 38 38 38 36 33 33 30 28 27 27 24 24 23 23 20 21
34 9 13 15 12 7 19 12 16 44 52 54 58 47 44 58 51 55 51 56 54 63 74 65 59 53 53 51 46 43 43 42 41 40 42 42 40 39 37 35 32 29 28 28 29 29 28 25 24
10 2 9 7 16 16 13 28 12 21 34 52 56 65 63 56 55 58 56 57 53 53 58 68 68 62 57 55 52 49 48 48 46 45 46 47 42 42 43 41 36 34 34 35 34 32 32 30 30
7 6 9 11 19 9 17 5 20 39 45 44 45 59 63 63 68 59 61 58 59 59 58 60 72 70 64 58 56 53 52 53 51 50 50 49 46 44 48 47 40 38 38 39 38 37 35 35 33
8 21 11 13 9 20 31 35 19 45 48 59 61 59 55 71 73 70 63 63 63 65 62 63 70 73 72 65 61 58 57 59 58 58 56 54 52 47 50 51 48 46 45 44 44 40 39 39 35
17 10 21 14 27 17 21 30 28 48 44 47 59 62 63 59 49 56 72 63 66 68 65 66 66 69 73 73 71 71 71 67 66 65 64 60 57 51 53 56 55 55 54 50 46 44 44 44 40
22 19 25 8 11 18 21 31 18 31 25 39 53 59 70 63 58 53 71 72 67 70 71 64 64 68 69 72 75 76 74 72 68 67 68 67 63 60 60 61 60 60 60 57 54 53 52 49 45
28 36 7 7 10 11 7 13 10 14 38 54 67 73 70 68 66 65 60 78 70 68 71 70 69 70 66 70 71 77 78 77 76 80 77 75 72 67 67 66 65 63 64 64 60 58 58 57 51
27 13 12 7 2 9 6 11 14 11 24 24 46 61 70 83 79 73 71 76 78 71 69 70 75 77 72 74 77 81 85 87 86 84 81 82 78 74 73 72 68 67 66 69 65 62 63 62 61
24 18 14 10 10 3 17 6 13 23 29 22 30 53 62 66 66 80 82 70 73 76 76 73 75 81 83 87 84 81 84 84 83 84 84 84 80 77 77 76 72 73 73 72 69 68 68 68 68
12 10 5 4 4 17 41 18 17 23 20 12 35 56 56 32 45 61 71 77 75 67 85 80 74 73 86 97 95 94 88 88 88 87 86 85 84 81 82 81 80 80 80 78 76 73 73 74 73
19 17 7 12 14 15 12 16 37 13 16 15 26 38 36 30 41 31 28 59 64 66 69 78 78 73 79 90 99 102 101 97 96 95 89 87 89 90 87 83 84 85 82 81 81 80 81 80 80
18 26 10 17 10 12 15 13 15 26 58 72 69 68 56 43 26 24 24 22 21 38 74 74 75 77 82 86 91 98 99 106 108 108 103 99 95 91 89 87 85 82 81 79 80 82 84 84 83
9 22 16 7 5 3 7 13 18 19 16 10 14 22 28 30 33 37 34 33 29 27 31 36 50 60 67 81 89 94 99 104 109 112 111 109 106 103 98 94 90 86 83 80 80 81 85 86 83
12 16 9 7 11 17 9 8 12 4 12 16 23 29 34 36 35 39 38 37 37 39 37 28 33 45 61 67 74 83 92 100 103 107 113 116 113 110 108 105 99 93 86 82 80 82 82 87 86
10 8 4 1 9 8 5 11 16 16 12 16 15 20 23 25 33 38 42 54 65 58 52 36 35 38 50 57 68 77 84 93 99 106 108 110 113 114 114 112 107 101 95 90 86 84 85 88 88
27 27 14 8 13 8 5 10 5 18 17 15 20 27 24 34 42 51 62 60 51 58 53 55 53 49 53 53 53 60 71 80 93 103 109 108 110 111 114 115 113 108 104 98 95 92 90 90 90
Wind_Direction_500mb
349 347 342 345 51 63 65 26 94 72 57 70 59 50 122 67 65 116 139 177 166 162 156 148 146 145 143 130 123 109 94 84 86 106 107 97 95 96 90 85 98 99 110 104 105 103 101 100 95
357 357 351 354 73 70 312 117 87 75 111 106 78 54 68 103 109 136 152 185 180 164 157 158 154 152 149 142 123 95 70 80 91 121 117 111 121 114 101 97 105 104 104 106 106 108 103 102 96
3 1 332 73 79 114 131 129 126 69 70 51 104 80 74 93 136 150 159 183 177 170 163 162 161 162 162 157 138 87 51 34 102 125 125 116 135 119 128 106 100 105 109 109 111 108 105 103 95
345 11 303 77 115 28 117 155 127 113 53 39 76 89 91 124 148 162 175 180 183 167 167 170 172 172 176 173 161 118 55 48 114 128 125 132 133 138 133 118 112 116 118 119 114 112 113 103 95
349 320 21 347 62 131 104 140 138 148 138 90 28 143 112 137 175 177 168 170 178 171 173 184 180 183 188 175 179 163 56 55 159 140 141 143 148 128 127 124 123 128 126 122 120 120 112 103 98
343 347 42 302 18 126 94 126 142 143 146 146 79 114 151 183 195 168 167 175 186 187 189 193 192 190 189 183 185 180 200 281 178 162 159 153 147 148 156 137 144 139 135 134 127 123 116 110 104
90 41 259 315 259 90 78 128 92 152 151 166 145 89 154 182 181 170 171 184 196 201 193 197 201 193 191 190 197 198 213 240 183 179 166 158 155 156 156 159 148 148 146 144 132 132 122 113 111
109 90 300 286 244 56 157 109 98 92 155 150 161 170 177 186 183 172 173 188 207 211 204 198 203 203 199 201 205 205 208 213 216 181 180 172 167 170 156 168 161 161 156 153 149 142 132 131 120
114 86 309 277 310 263 150 125 121 112 143 180 188 183 194 176 181 175 175 187 204 220 223 208 204 208 209 210 214 210 207 206 235 199 185 177 176 180 178 177 171 169 168 168 165 158 157 152 136
148 147 204 218 331 294 201 193 144 149 172 218 187 198 192 186 191 189 186 189 204 215 221 223 209 210 213 216 215 214 214 207 224 198 195 191 194 196 193 195 185 187 188 186 184 181 185 188 188
177 191 248 267 283 345 339 135 220 111 256 256 226 201 199 199 200 201 198 198 209 216 218 221 224 225 217 211 217 216 216 210 222 204 194 204 205 204 206 211 207 206 206 203 199 202 214 221 230
186 231 269 294 318 302 36 333 332 317 263 277 305 251 218 214 209 204 205 204 210 220 225 225 224 222 224 226 220 221 218 217 222 219 218 220 227 218 220 221 218 217 218 217 218 219 233 245 258
200 219 247 262 299 274 274 281 279 285 280 272 284 266 234 231 226 218 215 211 211 221 228 227 227 227 222 225 226 228 220 219 223 224 222 221 230 228 232 222 224 221 225 224 224 229 237 246 259
214 232 251 245 272 270 211 269 273 263 273 274 274 271 254 242 240 225 215 214 213 216 221 226 230 225 227 228 228 230 224 223 221 224 227 228 230 231 232 235 231 227 228 230 236 242 246 250 256
256 251 285 234 249 243 242 258 233 264 277 275 261 264 278 242 243 236 240 228 220 220 219 225 229 228 228 228 230 227 231 229 227 228 232 234 234 235 236 237 238 239 239 235 238 242 248 253 260
194 174 232 222 234 257 229 259 242 258 268 281 276 266 257 241 243 253 242 235 231 232 220 222 224 230 230 229 230 229 230 235 237 234 235 236 237 237 239 240 238 236 238 241 243 246 251 257 260
243 187 212 269 227 239 192 270 244 254 262 269 289 272 266 264 245 251 249 239 231 232 229 223 223 228 231 232 232 231 232 235 239 240 241 244 242 239 242 243 242 240 240 243 244 247 251 254 258
196 212 221 211 216 225 245 254 252 244 253 275 284 285 283 267 255 245 244 245 239 233 230 231 224 225 230 232 234 232 233 237 239 243 245 246 247 243 242 245 242 241 242 244 246 248 251 255 262
184 204 213 231 235 232 239 252 245 250 247 255 271 280 282 277 268 258 240 241 245 240 234 227 222 221 223 226 229 232 232 234 237 241 244 247 248 247 245 244 242 241 242 245 249 251 252 255 260
223 225 238 258 247 200 251 258 219 233 247 258 274 277 275 275 271 269 239 234 241 245 241 231 226 225 225 231 232 235 238 240 243 247 247 247 249 248 246 245 243 242 244 245 246 248 252 255 254
224 226 227 229 321 327 326 272 227 260 266 271 265 267 265 269 265 263 250 232 237 242 245 240 231 230 229 233 233 235 237 241 242 243 246 247 247 248 248 247 245 244 245 247 250 251 252 257 258
217 179 208 216 293 253 50 283 229 234 256 258 261 263 263 261 256 254 257 240 233 241 249 247 239 235 235 235 233 233 236 239 244 245 247 248 248 248 249 250 247 247 246 248 250 252 253 255 257
222 159 190 177 227 226 256 292 295 207 249 255 261 265 267 270 269 255 253 253 246 243 246 248 247 241 240 240 237 238 240 245 247 248 250 251 252 249 250 250 250 250 248 249 251 252 251 254 256
151 87 88 57 159 238 243 198 246 243 254 238 251 268 275 313 286 271 261 253 253 253 244 244 247 248 242 244 246 244 244 245 244 246 248 251 252 251 249 250 250 251 251 250 251 253 254 255 257
172 138 198 217 222 234 223 188 245 246 278 250 248 268 286 287 320 336 300 262 257 254 250 247 246 251 251 246 248 251 254 252 253 253 251 251 251 250 251 249 248 249 251 253 251 252 253 254 255
187 186 175 206 192 218 156 210 255 236 239 251 258 265 285 297 313 329 314 303 292 288 263 259 253 253 255 254 253 254 256 255 257 259 257 255 255 256 256 254 253 253 252 252 252 252 254 254 254
186 214 216 66 61 99 214 262 308 259 233 257 294 33 46 50 42 33 33 30 20 4 346 291 266 262 267 268 263 259 258 257 258 259 259 259 259 259 258 257 255 253 252 252 252 252 252 252 252
167 158 205 198 192 226 237 258 231 165 78 75 79 55 27 14 19 19 15 10 0 355 343 317 303 290 287 284 275 273 270 264 265 262 261 262 262 259 258 257 257 255 253 252 250 249 249 250 250
157 186 161 139 193 195 188 246 204 239 136 133 103 35 29 22 14 10 2 349 343 336 339 343 328 309 294 291 286 279 275 270 268 264 265 265 265 263 260 259 258 256 255 252 249 247 246 247 246
202 198 165 175 190 198 180 256 113 135 159 115 15 7 35 10 357 347 342 343 345 342 339 326 320 317 317 313 301 286 277 274 272 268 267 267 266 265 263 261 259 257 256 254 251 248 245 244 243
Wind_Speed_850mb
33 32 32 15 9 11 5 2 5 7 6 13 11 14 18 18 7 8 32 23 26 28 28 28 28 24 19 17 14 10 10 8 10 21 27 31 18 24 16 22 21 25 27 30 30 32 33 32 34
30 28 17 6 8 8 5 5 14 8 16 12 12 18 6 6 14 34 38 27 19 31 31 29 28 23 16 10 7 8 8 7 9 19 26 29 17 24 11 17 20 23 26 28 30 30 32 31 34
22 14 11 5 5 6 7 8 11 7 9 5 7 12 8 7 21 49 38 29 24 30 29 25 24 21 15 9 8 7 9 7 9 18 27 26 13 27 11 13 17 22 24 26 27 28 30 30 32
31 12 4 6 7 4 12 14 28 10 7 9 10 15 15 10 28 24 36 36 26 26 26 25 25 21 17 14 10 4 6 5 7 21 25 23 13 26 14 17 18 19 22 22 24 26 27 29 30
21 6 6 5 5 8 9 31 24 12 11 2 5 10 17 18 17 20 42 36 27 24 22 24 23 21 19 18 13 4 2 2 7 15 26 24 20 20 17 16 17 16 18 19 22 22 24 26 26
15 8 6 1 8 7 8 19 19 18 19 9 3 12 12 21 20 33 40 41 33 28 22 24 25 24 22 19 15 7 1 3 10 15 22 26 23 16 20 15 19 18 17 17 20 20 21 22 22
6 6 6 7 3 6 1 13 9 18 18 10 9 6 18 25 21 40 41 36 33 31 23 25 25 25 24 23 17 11 7 6 14 18 15 15 22 18 16 14 16 19 18 16 16 17 18 18 17
5 9 8 7 2 2 9 6 10 12 7 20 11 7 12 27 24 37 43 37 32 32 25 24 25 25 26 26 23 18 14 12 10 20 19 16 15 15 13 16 17 17 16 15 15 14 14 13 13
3 7 2 8 8 3 6 7 6 7 13 10 11 12 11 26 28 38 47 40 37 34 28 25 23 27 28 28 27 24 20 19 21 21 22 15 13 12 12 12 15 15 16 15 13 12 11 10 9
7 7 16 14 15 10 10 7 15 4 1 8 17 16 20 28 31 42 54 55 51 44 35 31 26 22 28 30 30 28 25 25 23 20 23 19 18 16 14 12 12 14 15 14 12 11 9 8 8
11 9 8 18 10 20 18 6 2 5 7 16 22 32 32 36 35 41 50 58 57 49 39 37 31 26 28 28 26 34 31 30 29 22 22 19 24 21 17 16 15 16 17 16 15 12 11 11 10
10 16 19 13 26 8 2 18 17 13 16 24 27 16 39 39 39 43 47 60 60 54 47 43 41 36 33 30 29 27 35 35 35 30 26 27 24 22 22 20 19 19 20 19 16 16 16 13 14
11 13 30 30 20 9 10 14 8 36 27 24 22 22 32 43 40 37 38 45 59 58 52 49 47 43 42 42 38 34 36 34 36 37 32 32 32 27 25 26 25 23 24 23 21 21 20 19 16
8 38 37 31 36 20 9 23 13 15 30 30 38 44 38 43 49 43 46 52 63 62 61 56 52 49 48 46 43 40 39 35 37 38 38 38 36 33 33 30 28 27 27 24 24 23 23 20 21
34 9 13 15 12 7 19 12 16 44 52 54 58 47 44 58 51 55 51 56 54 63 74 65 59 53 53 51 46 43 43 42 41 40 42 42 40 39 37 35 32 29 28 28 29 29 28 25 24
10 2 9 7 16 16 13 28 12 21 34 52 56 65 63 56 55 58 56 57 53 53 58 68 68 62 57 55 52 49 48 48 46 45 46 47 42 42 43 41 36 34 34 35 34 32 32 30 30
7 6 9 11 19 9 17 5 20 39 45 44 45 59 63 63 68 59 61 58 59 59 58 60 72 70 64 58 56 53 52 53 51 50 50 49 46 44 48 47 40 38 38 39 38 37 35 35 33
8 21 11 13 9 20 31 35 19 45 48 59 61 59 55 71 73 70 63 63 63 65 62 63 70 73 72 65 61 58 57 59 58 58 56 54 52 47 50 51 48 46 45 44 44 40 39 39 35
17 10 21 14 27 17 21 30 28 48 44 47 59 62 63 59 49 56 72 63 66 68 65 66 66 69 73 73 71 71 71 67 66 65 64 60 57 51 53 56 55 55 54 50 46 44 44 44 40
22 19 25 8 11 18 21 31 18 31 25 39 53 59 70 63 58 53 71 72 67 70 71 64 64 68 69 72 75 76 74 72 68 67 68 67 63 60 60 61 60 60 60 57 54 53 52 49 45
28 36 7 7 10 11 7 13 10 14 38 54 67 73 70 68 66 65 60 78 70 68 71 70 69 70 66 70 71 77 78 77 76 80 77 75 72 67 67 66 65 63 64 64 60 58 58 57 51
27 13 12 7 2 9 6 11 14 11 24 24 46 61 70 83 79 73 71 76 78 71 69 70 75 77 72 74 77 81 85 87 86 84 81 82 78 74 73 72 68 67 66 69 65 62 63 62 61
24 18 14 10 10 3 17 6 13 23 29 22 30 53 62 66 66 80 82 70 73 76 76 73 75 81 83 87 84 81 84 84 83 84 84 84 80 77 77 76 72 73 73 72 69 68 68 68 68
12 10 5 4 4 17 41 18 17 23 20 12 35 56 56 32 45 61 71 77 75 67 85 80 74 73 86 97 95 94 88 88 88 87 86 85 84 81 82 81 80 80 80 78 76 73 73 74 73
19 17 7 12 14 15 12 16 37 13 16 15 26 38 36 30 41 31 28 59 64 66 69 78 78 73 79 90 99 102 101 97 96 95 89 87 89 90 87 83 84 85 82 81 81 80 81 80 80
18 26 10 17 10 12 15 13 15 26 58 72 69 68 56 43 26 24 24 22 21 38 74 74 75 77 82 86 91 98 99 106 108 108 103 99 95 91 89 87 85 82 81 79 80 82 84 84 83
9 22 16 7 5 3 7 13 18 19 16 10 14 22 28 30 33 37 34 33 29 27 31 36 50 60 67 81 89 94 99 104 109 112 111 109 106 103 98 94 90 86 83 80 80 81 85 86 83
12 16 9 7 11 17 9 8 12 4 12 16 23 29 34 36 35 39 38 37 37 39 37 28 33 45 61 67 74 83 92 100 103 107 113 116 113 110 108 105 99 93 86 82 80 82 82 87 86
10 8 4 1 9 8 5 11 16 16 12 16 15 20 23 25 33 38 42 54 65 58 52 36 35 38 50 57 68 77 84 93 99 106 108 110 113 114 114 112 107 101 95 90 86 84 85 88 88
27 27 14 8 13 8 5 10 5 18 17 15 20 27 24 34 42 51 62 60 51 58 53 55 53 49 53 53 53 60 71 80 93 103 109 108 110 111 114 115 113 108 104 98 95 92 90 90 90
Wind_Direction_850mb
349 347 342 345 51 63 65 26 94 72 57 70 59 50 122 67 65 116 139 177 166 162 156 148 146 145 143 130 123 109 94 84 86 106 107 97 95 96 90 85 98 99 110 104 105 103 101 100 95
357 357 351 354 73 70 312 117 87 75 111 106 78 54 68 103 109 136 152 185 180 164 157 158 154 152 149 142 123 95 70 80 91 121 117 111 121 114 101 97 105 104 104 106 106 108 103 102 96
3 1 332 73 79 114 131 129 126 69 70 51 104 80 74 93 136 150 159 183 177 170 163 162 161 162 162 157 138 87 51 34 102 125 125 116 135 119 128 106 100 105 109 109 111 108 105 103 95
345 11 303 77 115 28 117 155 127 113 53 39 76 89 91 124 148 162 175 180 183 167 167 170 172 172 176 173 161 118 55 48 114 128 125 132 133 138 133 118 112 116 118 119 114 112 113 103 95
349 320 21 347 62 131 104 140 138 148 138 90 28 143 112 137 175 177 168 170 178 171 173 184 180 183 188 175 179 163 56 55 159 140 141 143 148 128 127 124 123 128 126 122 120 120 112 103 98
343 347 42 302 18 126 94 126 142 143 146 146 79 114 151 183 195 168 167 175 186 187 189 193 192 190 189 183 185 180 200 281 178 162 159 153 147 148 156 137 144 139 135 134 127 123 116 110 104
90 41 259 315 259 90 78 128 92 152 151 166 145 89 154 182 181 170 171 184 196 201 193 197 201 193 191 190 197 198 213 240 183 179 166 158 155 156 156 159 148 148 146 144 132 132 122 113 111
109 90 300 286 244 56 157 109 98 92 155 150 161 170 177 186 183 172 173 188 207 211 204 198 203 203 199 201 205 205 208 213 216 181 180 172 167 170 156 168 161 161 156 153 149 142 132 131 120
114 86 309 277 310 263 150 125 121 112 143 180 188 183 194 176 181 175 175 187 204 220 223 208 204 208 209 210 214 210 207 206 235 199 185 177 176 180 178 177 171 169 168 168 165 158 157 152 136
148 147 204 218 331 294 201 193 144 149 172 218 187 198 192 186 191 189 186 189 204 215 221 223 209 210 213 216 215 214 214 207 224 198 195 191 194 196 193 195 185 187 188 186 184 181 185 188 188
177 191 248 267 283 345 339 135 220 111 256 256 226 201 199 199 200 201 198 198 209 216 218 221 224 225 217 211 217 216 216 210 222 204 194 204 205 204 206 211 207 206 206 203 199 202 214 221 230
186 231 269 294 318 302 36 333 332 317 263 277 305 251 218 214 209 204 205 204 210 220 225 225 224 222 224 226 220 221 218 217 222 219 218 220 227 218 220 221 218 217 218 217 218 219 233 245 258
200 219 247 262 299 274 274 281 279 285 280 272 284 266 234 231 226 218 215 211 211 221 228 227 227 227 222 225 226 228 220 219 223 224 222 221 230 228 232 222 224 221 225 224 224 229 237 246 259
214 232 251 245 272 270 211 269 273 263 273 274 274 271 254 242 240 225 215 214 213 216 221 226 230 225 227 228 228 230 224 223 221 224 227 228 230 231 232 235 231 227 228 230 236 242 246 250 256
256 251 285 234 249 243 242 258 233 264 277 275 261 264 278 242 243 236 240 228 220 220 219 225 229 228 228 228 230 227 231 229 227 228 232 234 234 235 236 237 238 239 239 235 238 242 248 253 260
194 174 232 222 234 257 229 259 242 258 268 281 276 266 257 241 243 253 242 235 231 232 220 222 224 230 230 229 230 229 230 235 237 234 235 236 237 237 239 240 238 236 238 241 243 246 251 257 260
243 187 212 269 227 239 192 270 244 254 262 269 289 272 266 264 245 251 249 239 231 232 229 223 223 228 231 232 232 231 232 235 239 240 241 244 242 239 242 243 242 240 240 243 244 247 251 254 258
196 212 221 211 216 225 245 254 252 244 253 275 284 285 283 267 255 245 244 245 239 233 230 231 224 225 230 232 234 232 233 237 239 243 245 246 247 243 242 245 242 241 242 244 246 248 251 255 262
184 204 213 231 235 232 239 252 245 250 247 255 271 280 282 277 268 258 240 241 245 240 234 227 222 221 223 226 229 232 232 234 237 241 244 247 248 247 245 244 242 241 242 245 249 251 252 255 260
223 225 238 258 247 200 251 258 219 233 247 258 274 277 275 275 271 269 239 234 241 245 241 231 226 225 225 231 232 235 238 240 243 247 247 247 249 248 246 245 243 242 244 245 246 248 252 255 254
224 226 227 229 321 327 326 272 227 260 266 271 265 267 265 269 265 263 250 232 237 242 245 240 231 230 229 233 233 235 237 241 242 243 246 247 247 248 248 247 245 244 245 247 250 251 252 257 258
217 179 208 216 293 253 50 283 229 234 256 258 261 263 263 261 256 254 257 240 233 241 249 247 239 235 235 235 233 233 236 239 244 245 247 248 248 248 249 250 247 247 246 248 250 252 253 255 257
222 159 190 177 227 226 256 292 295 207 249 255 261 265 267 270 269 255 253 253 246 243 246 248 247 241 240 240 237 238 240 245 247 248 250 251 252 249 250 250 250 250 248 249 251 252 251 254 256
151 87 88 57 159 238 243 198 246 243 254 238 251 268 275 313 286 271 261 253 253 253 244 244 247 248 242 244 246 244 244 245 244 246 248 251 252 251 249 250 250 251 251 250 251 253 254 255 257
172 138 198 217 222 234 223 188 245 246 278 250 248 268 286 287 320 336 300 262 257 254 250 247 246 251 251 246 248 251 254 252 253 253 251 251 251 250 251 249 248 249 251 253 251 252 253 254 255
187 186 175 206 192 218 156 210 255 236 239 251 258 265 285 297 313 329 314 303 292 288 263 259 253 253 255 254 253 254 256 255 257 259 257 255 255 256 256 254 253 253 252 252 252 252 254 254 254
186 214 216 66 61 99 214 262 308 259 233 257 294 33 46 50 42 33 33 30 20 4 346 291 266 262 267 268 263 259 258 257 258 259 259 259 259 259 258 257 255 253 252 252 252 252 252 252 252
167 158 205 198 192 226 237 258 231 165 78 75 79 55 27 14 19 19 15 10 0 355 343 317 303 290 287 284 275 273 270 264 265 262 261 262 262 259 258 257 257 255 253 252 250 249 249 250 250
157 186 161 139 193 195 188 246 204 239 136 133 103 35 29 22 14 10 2 349 343 336 339 343 328 309 294 291 286 279 275 270 268 264 265 265 265 263 260 259 258 256 255 252 249 247 246 247 246
202 198 165 175 190 198 180 256 113 135 159 115 15 7 35 10 357 347 342 343 345 342 339 326 320 317 317 313 301 286 277 274 272 268 267 267 266 265 263 261 259 257 256 254 251 248 245 244 243